Probability
32 39 90 77 77 71 68 61 68 77 77 77 81 84 77 81 84 81 74 84 81 77 65 61 68 68 68 61 68 65 61 68 65 65 68 68 68 71 71 74 77 74 84
32 45 74 77 74 74 61 68 74 81 84 81 81 84 87 84 81 74 77 77 77 81 74 71 71 65 65 68 68 68 71 65 61 68 68 68 74 81 87 71 68 71 84
35 42 58 81 77 74 74 81 84 81 81 81 84 81 84 84 81 74 77 74 77 77 81 71 71 71 65 58 61 65 68 74 74 74 74 48 65 77 81 71 74 77 81
29 35 48 77 84 81 84 87 90 87 87 77 81 84 87 87 81 81 74 71 77 68 74 81 68 71 71 65 61 65 74 71 74 74 45 39 45 74 77 71 77 77 77
32 39 55 81 84 84 81 84 90 87 84 81 77 84 87 84 81 81 77 74 71 68 71 68 55 61 65 61 68 68 68 74 74 42 16 29 35 71 74 77 74 74 71
32 35 61 81 84 81 77 84 84 87 84 84 81 84 77 74 81 77 71 77 71 68 65 52 52 65 65 58 58 58 61 65 61 23 19 26 39 71 81 81 71 71 71
29 35 65 74 74 77 81 84 90 84 81 84 74 74 74 68 68 77 74 71 61 61 58 45 52 55 58 65 48 45 55 58 29 23 10 23 35 74 87 87 71 71 68
29 35 55 81 81 84 84 81 87 90 84 81 74 68 68 65 61 61 61 68 55 52 52 48 55 52 55 58 55 52 61 55 29 16 26 19 68 84 84 84 71 74 74
32 35 45 52 71 81 77 81 81 81 81 68 61 68 68 65 65 68 65 58 48 45 52 45 48 52 55 55 68 71 65 71 23 19 26 35 71 81 84 77 74 65 61
26 35 35 39 35 42 55 74 74 81 71 61 65 65 65 65 65 71 65 65 48 48 42 35 45 55 55 65 71 65 55 42 23 23 19 52 77 84 84 84 71 68 65
23 26 29 23 26 26 32 58 68 77 81 71 71 71 61 32 32 35 42 58 39 45 35 45 52 55 68 65 74 71 48 23 19 16 16 65 81 81 87 81 74 77 71
6 10 19 23 16 23 29 29 39 45 35 32 26 23 23 16 26 32 48 61 52 45 39 55 61 58 45 16 19 48 29 23 19 13 19 68 71 81 71 77 71 68 65
6 10 6 10 13 16 19 16 23 16 16 16 10 10 10 10 6 23 16 26 32 29 23 19 35 16 16 10 10 10 16 13 6 13 23 68 68 74 71 74 71 65 71
3 6 16 10 19 19 16 19 26 16 16 13 6 6 6 6 3 6 6 6 10 13 10 13 6 13 10 13 16 10 13 16 3 10 23 68 68 81 71 68 68 74 65
6 10 16 16 16 16 10 19 23 23 13 10 10 3 3 6 6 3 6 6 16 10 10 10 6 6 6 10 10 10 6 10 3 6 13 61 65 71 68 65 65 61 61
16 13 10 13 16 10 16 19 19 19 13 10 10 6 6 6 6 16 10 10 13 16 6 3 6 10 6 6 6 6 3 0 6 6 6 42 71 74 71 74 71 61 61
13 16 13 16 16 16 16 16 19 16 16 13 16 16 10 13 16 13 13 16 16 13 13 6 3 6 3 3 0 0 0 3 6 6 10 6 26 65 71 68 68 61 65
13 16 19 26 16 13 16 16 16 19 13 10 16 16 16 19 16 19 23 19 19 16 10 10 3 3 3 3 0 0 6 6 3 3 3 10 10 16 48 65 61 61 58
13 19 23 23 19 26 19 23 19 19 19 19 16 19 16 10 10 13 10 10 10 6 6 10 6 3 3 3 3 13 10 10 10 3 3 3 6 6 10 32 61 58 58
16 13 23 26 26 29 19 19 19 19 19 19 19 13 13 13 10 10 6 3 3 10 10 6 10 6 3 3 10 10 10 10 13 10 3 3 6 10 6 6 19 48 58
19 19 26 26 32 29 23 19 19 19 19 19 13 13 13 13 10 3 6 3 6 6 10 10 10 10 3 3 6 6 3 3 10 10 6 6 6 10 13 13 13 6 10
29 26 32 32 32 32 29 23 26 19 16 16 13 13 13 10 10 10 3 3 6 6 3 6 10 6 6 3 6 6 3 3 3 3 10 6 6 10 13 16 10 6 3
32 32 42 35 42 35 32 32 29 13 23 16 16 10 6 6 6 3 3 10 10 6 10 6 6 13 10 10 3 6 6 0 0 0 3 3 0 0 3 3 6 6 6
32 32 35 39 42 42 32 35 29 23 16 10 13 13 10 6 3 10 10 10 10 10 6 10 10 6 6 13 13 6 3 0 0 3 3 3 3 6 0 6 6 6 10
45 39 42 42 42 48 35 32 23 13 10 10 6 13 13 10 13 13 10 13 10 10 10 3 6 10 6 10 10 10 6 6 3 3 3 3 3 6 10 6 6 6 10
39 52 48 48 52 42 42 35 29 19 16 10 13 10 13 10 13 13 10 13 10 10 10 10 10 10 13 10 13 10 6 6 6 3 3 0 3 6 3 6 6 6 6
Height
5890 5889 5889 5889 5889 5889 5889 5890 5890 5891 5891 5891 5891 5892 5892 5892 5893 5893 5893 5894 5894 5894 5894 5894 5894 5895 5895 5895 5896 5896 5896 5896 5896 5896 5896 5896 5896 5895 5895 5894 5894 5894 5894
5891 5890 5890 5890 5890 5890 5891 5891 5891 5892 5892 5892 5892 5893 5893 5893 5894 5894 5894 5895 5895 5895 5894 5895 5895 5896 5896 5896 5896 5897 5897 5897 5897 5897 5897 5896 5896 5896 5895 5895 5895 5895 5895
5892 5892 5892 5891 5891 5892 5892 5892 5892 5893 5893 5893 5893 5894 5894 5894 5895 5895 5895 5896 5896 5896 5896 5896 5896 5896 5896 5897 5897 5897 5897 5897 5898 5897 5897 5897 5897 5897 5896 5896 5896 5896 5896
5893 5893 5893 5893 5893 5893 5893 5894 5894 5894 5894 5894 5894 5895 5895 5895 5896 5896 5896 5896 5896 5897 5897 5897 5897 5897 5897 5897 5898 5898 5898 5898 5898 5898 5898 5898 5898 5898 5898 5897 5897 5897 5897
5894 5894 5894 5894 5894 5894 5894 5895 5895 5895 5895 5895 5896 5896 5896 5896 5897 5897 5897 5897 5897 5897 5897 5897 5897 5897 5898 5898 5898 5898 5899 5899 5899 5899 5898 5899 5899 5899 5899 5898 5898 5898 5898
5895 5895 5895 5895 5895 5895 5895 5895 5895 5896 5896 5896 5897 5897 5897 5897 5897 5897 5898 5898 5898 5898 5898 5897 5898 5898 5899 5899 5899 5899 5899 5899 5899 5899 5899 5899 5899 5899 5899 5899 5899 5898 5898
5897 5897 5897 5897 5896 5896 5896 5896 5896 5896 5897 5897 5897 5898 5898 5898 5898 5898 5898 5899 5899 5899 5899 5899 5899 5899 5899 5900 5899 5900 5899 5899 5899 5899 5899 5899 5899 5900 5899 5899 5899 5899 5898
5898 5898 5898 5898 5898 5897 5897 5897 5896 5897 5897 5898 5898 5898 5898 5898 5899 5899 5899 5899 5899 5899 5900 5900 5900 5900 5900 5900 5900 5900 5900 5900 5900 5900 5900 5900 5900 5900 5900 5899 5899 5899 5898
5900 5900 5900 5900 5899 5899 5898 5898 5897 5897 5898 5898 5899 5899 5899 5899 5899 5899 5900 5900 5900 5900 5900 5900 5900 5900 5901 5901 5901 5900 5900 5900 5900 5900 5900 5900 5900 5900 5900 5899 5899 5899 5898
5901 5901 5901 5901 5900 5900 5899 5899 5898 5898 5898 5899 5899 5899 5900 5900 5900 5900 5900 5900 5900 5900 5900 5900 5900 5900 5901 5901 5901 5901 5900 5900 5900 5900 5900 5900 5900 5900 5899 5899 5899 5899 5898
5903 5902 5902 5902 5902 5901 5900 5900 5899 5899 5899 5900 5900 5900 5900 5901 5901 5901 5901 5901 5901 5901 5901 5901 5901 5901 5902 5902 5901 5901 5901 5900 5900 5900 5900 5900 5899 5899 5899 5899 5899 5898 5898
5905 5904 5904 5904 5903 5903 5902 5901 5901 5900 5901 5901 5901 5901 5901 5902 5902 5902 5901 5901 5901 5901 5901 5902 5902 5902 5902 5902 5902 5901 5901 5900 5900 5900 5900 5899 5899 5899 5899 5898 5898 5898 5898
5908 5907 5906 5906 5905 5904 5904 5903 5902 5902 5902 5902 5902 5902 5903 5903 5903 5903 5902 5902 5902 5902 5902 5902 5902 5903 5902 5902 5902 5901 5901 5900 5900 5900 5900 5899 5898 5899 5898 5898 5898 5897 5897
5910 5909 5908 5907 5907 5906 5905 5904 5904 5903 5903 5903 5903 5903 5904 5904 5904 5904 5904 5903 5903 5903 5903 5903 5903 5903 5903 5902 5902 5902 5901 5901 5901 5900 5900 5899 5899 5898 5898 5897 5897 5897 5896
5911 5911 5910 5909 5908 5908 5907 5906 5905 5905 5904 5904 5904 5904 5904 5905 5905 5905 5905 5904 5904 5904 5904 5903 5903 5903 5903 5903 5903 5902 5902 5901 5900 5900 5899 5899 5898 5897 5896 5896 5896 5896 5895
5914 5913 5912 5911 5910 5909 5908 5907 5906 5906 5906 5905 5905 5905 5905 5905 5905 5906 5905 5905 5905 5904 5904 5904 5904 5903 5903 5903 5902 5902 5902 5901 5900 5900 5899 5899 5898 5897 5897 5896 5896 5895 5894
5915 5914 5913 5912 5911 5910 5909 5908 5908 5908 5907 5906 5906 5906 5906 5906 5906 5906 5906 5905 5905 5905 5905 5904 5904 5904 5903 5903 5902 5902 5901 5900 5900 5900 5899 5898 5898 5897 5897 5896 5895 5894 5893
5916 5915 5914 5913 5912 5911 5911 5910 5909 5909 5908 5908 5907 5907 5907 5906 5906 5906 5906 5906 5905 5905 5905 5904 5904 5904 5903 5903 5902 5902 5901 5900 5900 5899 5899 5898 5897 5897 5896 5895 5894 5893 5891
5917 5916 5915 5914 5914 5913 5912 5911 5910 5910 5909 5909 5908 5908 5907 5907 5907 5906 5906 5906 5905 5905 5905 5904 5904 5903 5903 5903 5902 5901 5901 5900 5900 5899 5898 5897 5897 5896 5895 5894 5893 5892 5891
5918 5917 5916 5915 5914 5914 5913 5912 5911 5910 5910 5909 5908 5908 5907 5907 5907 5907 5906 5906 5905 5905 5904 5903 5903 5903 5903 5902 5902 5901 5901 5900 5899 5899 5898 5897 5896 5895 5894 5893 5891 5890 5889
5917 5917 5917 5916 5915 5914 5913 5912 5911 5911 5910 5909 5909 5908 5908 5907 5907 5906 5906 5905 5905 5904 5904 5903 5902 5902 5902 5901 5901 5901 5900 5899 5898 5898 5897 5896 5894 5893 5892 5891 5889 5888 5887
5917 5917 5917 5916 5916 5914 5913 5912 5912 5911 5910 5909 5909 5908 5907 5907 5906 5906 5905 5905 5904 5903 5903 5902 5902 5901 5901 5900 5900 5899 5899 5898 5897 5896 5895 5894 5892 5891 5890 5888 5887 5885 5884
5917 5916 5916 5916 5915 5914 5913 5912 5911 5910 5910 5909 5908 5908 5907 5906 5906 5905 5904 5903 5903 5902 5902 5901 5901 5900 5899 5899 5898 5898 5897 5896 5895 5894 5892 5891 5890 5889 5887 5885 5884 5882 5881
5916 5916 5915 5915 5914 5913 5912 5911 5911 5910 5909 5908 5908 5907 5906 5906 5905 5904 5903 5902 5902 5901 5900 5900 5899 5898 5898 5897 5896 5895 5895 5893 5893 5891 5890 5889 5887 5886 5884 5882 5880 5879 5877
5915 5914 5914 5913 5913 5912 5911 5910 5909 5909 5908 5907 5906 5906 5905 5904 5903 5902 5902 5901 5900 5899 5898 5898 5897 5896 5895 5894 5894 5893 5892 5891 5890 5889 5887 5886 5884 5883 5881 5879 5877 5876 5874
5913 5912 5912 5911 5911 5910 5910 5909 5908 5907 5906 5906 5905 5904 5903 5902 5901 5901 5900 5899 5898 5897 5896 5895 5894 5893 5892 5891 5891 5890 5889 5888 5886 5885 5884 5882 5881 5879 5877 5875 5874 5872 5870
Wind_Speed
7 7 7 6 6 6 6 5 5 5 4 3 3 3 3 3 4 4 5 6 6 6 6 6 5 6 7 6 6 5 5 5 5 4 5 4 4 5 5 6 6 6 6
7 7 7 6 6 7 6 5 5 5 5 4 4 4 4 4 4 5 6 6 5 5 5 5 5 6 6 6 6 5 5 4 5 5 5 4 5 5 6 6 6 6 6
8 7 7 7 7 7 6 5 5 5 5 5 5 5 5 4 4 5 6 5 5 5 4 4 5 5 5 5 5 5 5 5 4 4 4 5 5 5 6 6 6 6 6
8 7 7 7 7 7 5 5 5 5 5 5 4 5 5 5 5 5 5 5 5 4 4 4 4 5 5 5 4 4 4 4 4 4 5 5 5 5 6 6 6 6 6
8 7 7 8 7 6 6 5 5 5 5 5 5 5 5 5 5 5 4 4 5 5 5 4 5 5 5 5 4 4 4 4 4 5 5 5 5 5 5 6 6 6 6
9 8 8 8 7 6 5 5 5 5 5 5 5 5 5 4 4 4 4 4 5 5 5 6 6 6 5 5 4 4 5 4 4 4 4 4 5 5 5 5 5 5 5
10 9 9 8 8 6 6 6 5 5 5 5 4 4 3 4 4 4 5 4 4 4 4 5 5 5 4 4 3 4 4 5 5 4 4 4 4 4 4 4 4 4 4
9 10 9 9 8 8 7 6 6 6 5 5 5 4 4 4 4 5 4 4 4 4 4 4 4 3 3 3 3 4 4 4 4 4 4 4 4 4 3 3 3 3 3
10 9 9 9 9 8 7 7 6 6 5 5 5 5 5 5 5 4 4 4 4 4 4 3 3 3 4 4 3 3 3 3 3 4 3 3 4 3 3 3 3 3 2
10 10 9 9 9 8 8 7 7 7 6 6 6 6 6 5 5 5 4 4 4 4 4 3 4 4 5 4 3 3 3 3 3 3 3 3 3 3 3 3 3 2 2
12 11 10 10 9 8 8 8 8 8 7 7 6 6 6 6 5 5 5 5 4 4 4 4 4 5 5 4 4 3 3 3 2 2 2 2 2 2 2 2 2 2 2
13 12 11 10 10 9 9 9 8 8 8 7 7 6 6 6 5 5 5 5 4 4 4 4 3 4 4 4 4 3 3 2 1 1 1 1 1 1 1 1 1 1 1
12 12 12 11 11 11 11 9 8 8 7 7 6 6 7 6 5 5 6 5 4 4 4 4 3 4 4 3 3 3 2 2 1 1 1 1 1 1 1 1 1 1 1
13 12 12 11 11 11 11 10 9 8 7 7 7 7 7 6 5 5 5 4 4 4 4 3 3 4 3 2 2 2 2 2 2 2 1 1 0 1 1 1 1 2 2
13 13 12 12 11 11 11 11 10 9 8 7 7 7 6 6 5 5 5 4 4 4 4 4 4 3 3 2 1 1 1 1 2 2 2 1 1 1 1 1 2 2 3
11 12 12 11 11 11 11 11 10 10 9 7 6 6 6 5 5 5 5 4 4 4 3 3 3 3 3 3 2 1 1 2 2 2 1 2 2 2 2 2 2 3 3
10 10 11 10 10 10 10 10 10 9 9 8 6 6 6 6 5 5 4 3 3 3 2 2 2 3 3 3 2 2 2 2 2 2 2 2 2 2 2 2 2 3 4
9 9 10 10 9 9 9 9 9 8 8 7 7 6 6 6 5 5 4 3 3 3 2 2 2 2 3 2 2 2 2 2 3 3 2 2 3 3 3 3 4 4 4
8 8 8 9 9 9 9 8 8 7 7 6 6 5 5 6 6 5 5 4 3 3 2 1 1 1 2 2 2 2 2 2 3 3 3 3 4 3 4 4 5 5 6
7 7 7 8 8 8 8 7 7 7 6 5 5 5 5 5 5 5 5 4 4 3 3 2 2 2 2 2 2 2 2 3 4 4 4 5 5 5 5 6 6 7 8
6 6 6 7 7 6 6 6 7 6 6 6 5 4 4 4 4 4 4 4 4 3 3 3 3 2 2 2 3 3 4 5 5 5 6 6 6 6 7 8 8 9 9
4 4 5 5 5 6 6 6 6 6 6 6 6 4 3 4 4 3 3 3 3 4 4 4 3 3 3 3 4 5 5 6 7 7 7 7 8 8 9 10 10 10 10
2 2 3 4 5 5 5 5 5 5 5 5 5 4 4 4 4 5 4 4 4 4 4 4 4 4 5 5 6 6 7 7 8 8 8 9 9 10 12 12 11 11 12
4 3 3 4 4 4 5 5 5 5 5 5 5 5 5 5 6 6 6 4 4 4 5 5 5 5 6 7 8 8 9 8 9 9 9 10 10 11 12 13 13 13 13
6 5 4 4 4 4 5 5 5 6 6 6 5 6 6 7 6 6 7 6 5 6 6 7 7 7 8 8 9 9 9 9 10 10 10 11 11 12 14 14 14 14 14
7 6 6 6 6 5 5 5 6 6 6 6 6 6 6 7 7 7 8 7 7 7 8 8 8 9 9 10 10 10 10 10 11 11 12 12 13 13 14 14 15 15 15
Wind_Direction
79 78 78 85 93 99 102 113 119 114 106 105 102 103 116 119 113 108 102 108 112 111 108 117 127 126 122 123 118 111 99 89 93 91 90 92 90 84 83 87 93 100 100
81 77 76 86 93 99 101 100 109 111 104 103 103 111 118 119 114 105 100 101 105 107 107 110 120 119 118 119 116 108 98 98 98 95 95 86 87 88 87 88 92 97 99
78 81 82 88 93 101 102 104 113 117 107 104 107 111 111 110 109 105 102 104 109 108 106 112 121 117 112 114 113 106 100 101 99 92 86 80 87 89 89 92 92 96 100
74 84 87 92 95 99 98 101 106 112 107 106 107 105 107 106 102 102 102 105 104 100 101 110 118 121 119 116 108 108 101 95 94 87 82 81 87 88 83 90 90 94 101
73 83 87 92 91 88 88 94 100 105 105 104 105 107 104 100 99 97 105 107 103 94 95 105 111 117 116 108 101 100 98 95 95 91 88 87 93 90 81 85 88 92 100
74 78 87 86 83 81 85 92 98 99 100 106 106 109 102 97 96 96 102 109 105 96 95 105 104 104 113 112 106 101 99 98 102 93 86 86 89 88 83 85 91 95 101
75 77 78 78 76 80 77 79 93 100 98 100 105 106 103 103 101 102 104 114 111 105 103 107 98 97 106 107 108 105 104 105 102 94 84 83 84 80 82 87 93 93 102
78 78 77 77 76 78 79 77 85 95 96 97 96 93 98 108 112 108 107 115 113 107 107 107 96 91 96 103 107 106 107 106 104 97 88 86 85 81 82 86 92 93 98
81 82 80 79 77 76 75 77 83 89 93 95 92 88 94 102 105 104 106 111 108 102 107 104 101 90 89 92 94 96 99 104 102 99 93 90 83 80 87 88 91 94 101
79 82 81 78 76 73 76 78 82 87 92 95 95 95 95 97 96 96 99 107 106 103 104 108 100 99 89 83 87 86 91 102 107 108 107 100 92 88 94 89 85 87 94
74 77 80 79 77 77 73 79 82 88 89 92 100 101 97 97 96 96 101 106 104 102 100 100 92 95 87 88 89 86 93 96 105 106 107 95 90 95 106 100 94 84 86
73 76 78 77 76 75 71 76 80 87 89 93 99 100 98 96 92 93 99 104 106 103 101 99 85 82 88 93 87 85 90 91 84 101 109 104 102 90 89 99 91 71 59
71 72 75 76 74 71 71 79 76 83 90 95 98 101 100 95 91 88 87 90 102 100 94 91 85 86 85 94 91 90 86 80 58 94 105 113 83 46 38 34 25 9 10
68 70 73 73 71 69 71 76 79 77 88 96 97 96 96 94 91 88 86 86 88 85 79 80 86 84 78 79 87 94 88 72 46 40 109 145 55 330 303 354 337 320 329
66 65 66 68 68 65 63 64 72 77 78 83 84 86 91 92 85 80 79 82 76 69 67 82 83 78 70 70 77 83 93 53 23 38 42 37 32 358 346 347 327 323 323
66 65 64 63 65 64 63 61 61 63 69 79 86 87 88 85 84 80 78 81 72 69 68 62 53 47 46 41 47 60 33 33 19 18 6 9 16 358 350 342 324 317 314
62 63 59 58 60 58 56 56 57 56 57 64 77 78 78 81 84 81 73 70 61 63 61 51 36 30 35 35 47 54 45 38 11 9 6 352 358 360 343 323 322 319 312
58 58 56 56 56 55 52 50 51 54 55 59 64 67 70 71 76 75 69 65 57 53 44 38 25 29 32 26 37 36 20 11 4 1 1 349 342 344 335 324 316 306 307
55 53 50 50 51 49 48 48 49 50 49 49 53 58 61 62 63 69 66 57 53 43 33 30 19 16 20 13 8 358 339 335 342 342 338 333 328 322 319 312 310 304 301
50 50 48 46 46 45 42 41 44 45 42 41 46 49 49 52 50 54 49 42 35 20 5 354 324 309 313 317 325 334 327 320 322 323 315 315 315 312 312 312 310 306 300
42 45 42 41 42 40 35 32 34 40 42 39 38 39 40 35 31 21 25 21 18 11 358 349 337 314 306 308 313 314 310 303 310 307 304 303 304 304 304 304 303 303 301
32 36 31 28 29 30 29 27 28 32 31 29 27 21 15 12 10 8 8 356 354 350 346 340 319 310 307 298 296 297 299 302 303 300 296 296 298 302 302 297 294 296 299
347 5 7 5 10 14 14 12 14 17 15 14 13 12 5 354 353 350 337 335 339 336 331 332 317 301 304 298 293 293 292 298 300 298 295 295 296 299 299 295 295 294 294
306 314 330 342 347 352 356 354 354 355 354 354 354 354 350 342 340 345 342 328 322 320 320 319 309 306 304 302 297 295 294 295 301 304 297 295 295 297 297 295 296 296 294
301 291 296 305 313 326 333 338 337 334 333 335 333 335 339 334 330 333 336 326 311 305 306 305 304 302 303 301 300 299 297 297 301 299 298 297 296 295 296 293 293 295 296
292 282 288 292 294 305 313 318 322 323 322 322 322 325 326 328 327 325 326 326 318 309 306 303 300 300 298 297 298 297 298 298 298 298 296 295 294 293 295 296 294 292 293